User: anonymous   Login
Location: ?????????
(38.0736°N, 23.2119°E)
Time: 12:05:45
(UTC+00:00)
Language:

SPOT 3 Rocket - Orbit

View from above orbital plane
View from above orbital plane
View from above satellite
View from above satellite

Ground track
Ground track

The orbit data is extracted from the following two-line orbital elements,

1 22830U 93061H   24173.68059326  .00000322  00000-0  13608-3 0  9998
2 22830  98.5710 241.2546 0010247 340.7288  19.3506 14.32137406604473
Epoch (UTC): 21 June 2024 16:20:03
Eccentricity: 0.0010247
inclination: 98.5710°
perigee height: 777 km
apogee height: 792 km
right ascension of ascending node: 241.2546°
argument of perigee: 340.7288°
revolutions per day: 14.32137406
mean anomaly at epoch: 19.3506°
orbit number at epoch: 60447

The dashed part of the orbit path shows where the satellite is in the earth's shadow,  

DLR